Flag for United Kingdom Weather past 2 weeks in Gloucester, England, United Kingdom

Now
52 °F

Scattered showers. Scattered clouds.


Feels Like: 46 °F
Forecast: 42 / 59 °F
Wind: 18 mph from Southwest

Location: Staverton Private

Current Time: May 6, 2015 at 11:36:36 AM

Latest Report: May 6, 2015 at 11:20 AM


Visibility: N/A

Pressure: 29.47 "Hg

Humidity: 88%

Dew point: 48 °F

Location of GloucesterLocation

Historic Weather in Gloucester — Graph

°F

Gloucester temperature yesterday

Maximum temperature yesterday: 59 °F (at 3:20 PM)
Minimum temperature yesterday: 52 °F (at 10:20 AM)
Average temperature yesterday: 56 °F

Past Weeks' High & Low Weather Summary

 TemperatureHumidityPressure
High64 °F (Apr 21, 2:50 PM)94% (May 3, 8:50 AM)30.60 "Hg (May 3, 8:50 AM)
Low36 °F (Apr 27, 6:50 AM)30% (Apr 26, 6:50 PM)29.09 "Hg (May 5, 6:50 AM)
Average54 °F65%29.84 "Hg
* Reported Apr 21 10:20 AM — May 6 10:20 AM, Gloucester, Weather by CustomWeather, © 2015

Note: Actual official high and low records may vary slightly from our data, if they occured in-between our weather recording intervals... More about our weather records

Advertising

Gloucester weather history for previous 24 hours

 ConditionsComfort  
Time TempWeatherWind HumidityBarometerVisibility
10:20 AM
Wed, May 6
52 °FSprinkles. Scattered clouds.21 mph82%29.47 "Hg6 mi
9:50 AM52 °FScattered showers. Scattered clouds.21 mph77%29.47 "HgN/A
9:20 AM52 °FScattered clouds.22 mph72%29.47 "HgN/A
8:50 AM52 °FScattered clouds.22 mph72%29.47 "HgN/A
8:20 AM50 °FScattered clouds.17 mph82%29.47 "HgN/A
7:50 AM50 °FScattered clouds.18 mph76%29.47 "HgN/A
7:20 AM48 °FScattered showers. Scattered clouds.15 mph82%29.47 "HgN/A
6:50 AM48 °FScattered showers. Scattered clouds.15 mph82%29.47 "HgN/A
7:20 PM
Tue, May 5
55 °FScattered clouds.17 mph67%29.42 "HgN/A
6:50 PM55 °FScattered clouds.22 mph67%29.39 "HgN/A
6:20 PM55 °FScattered clouds.22 mph72%29.39 "HgN/A
5:50 PM55 °FScattered clouds.23 mph77%29.39 "HgN/A
5:20 PM55 °FScattered showers. Scattered clouds.20 mph77%29.39 "HgN/A
4:50 PM55 °FScattered showers. Scattered clouds.20 mph77%29.39 "HgN/A
4:20 PM57 °FScattered showers. Scattered clouds.24 mph72%29.39 "HgN/A
3:50 PM59 °FScattered showers. Scattered clouds.28 mph68%29.39 "HgN/A
3:20 PM59 °FScattered showers. Scattered clouds.29 mph63%29.39 "HgN/A
2:50 PM57 °FScattered showers. Scattered clouds.25 mph67%29.39 "HgN/A
2:20 PM57 °FScattered showers. Scattered clouds.16 mph67%29.39 "HgN/A
1:50 PM57 °FScattered showers. Scattered clouds.18 mph67%29.39 "HgN/A
1:20 PM57 °FPassing clouds.20 mph67%29.36 "HgN/A
12:50 PM55 °FPartly sunny.21 mph63%29.36 "HgN/A
12:20 PM55 °FPartly sunny.23 mph63%29.36 "HgN/A
11:50 AM57 °FScattered clouds.23 mph59%29.33 "HgN/A
11:20 AM55 °FPassing clouds.20 mph72%29.33 "HgN/A
Weather by CustomWeather, © 2015

See weather overviewHow to use our weather pages